SCP
0 0 0 0 0 0 0 0 0 0 0 0 0 0 0 0 0 0 0 0 0 0 0 0 0 0 0 0 0 0 0 0 0 0 0 0 0 0 0 0 0 0 0 0
0 0 0 0 0 0 0 0 0 0 0 0 0 0 0 0 0 0 0 0 0 0 0 0 0 0 0 0 0 0 0 0 0 0 0 0 0 0 0 0 0 0 0 0
0 0 0 0 0 0 0 0 0 0 0 0 0 0 0 0 0 0 0 0 0 0 0 0 0 0 0 0 0 0 0 0 0 0 0 0 0 0 0 0 0 0 0 0
0 0 0 0 0 0 0 0 0 0 0 0 0 0 0 0 0 0 0 0 0 0 0 0 0 0 0 0 0 0 0 0 0 0 0 0 0 0 0 0 0 0 0 0
0 0 0 0 0 0 0 0 0 0 0 0 0 0 0 0 0 0 0 0 0 0 0 0 0 0 0 0 0 0 0 0 0 0 0 0 0 0 0 0 0 0 0 0
0 0 0 0 0 0 0 0 0 0 0 0 0 0 0 0 0 0 0 0 0 0 0 0 0 0 0 0 0 0 0 0 0 0 0 0 0 0 0 0 0 0 0 0
0 0 0 0 0 0 0 0 0 0 0 0 0 0 0 0 0 0 0 0 0 0 0 0 0 0 0 0 0 0 0 0 0 0 0 0 0 0 0 0 0 0 0 0
0 0 0 0 0 0 0 0 0 0 0 0 0 0 0 0 0 0 0 0 0 0 0 0 0 0 0 0 0 0 0 0 0 0 0 0 0 0 0 0 0 0 0 0
0 0 0 0 0 0 0 0 0 0 0 0 0 0 0 0 0 0 0 0 0 0 0 0 0 0 0 0 0 0 0 0 0 0 0 0 0 0 0 0 0 0 0 0
0 0 0 0 0 0 0 0 0 0 0 0 0 0 0 0 0 0 0 0 0 0 0 0 0 0 0 0 0 0 0 0 0 0 0 0 0 0 0 0 0 0 0 0
0 0 0 0 0 0 0 0 0 0 0 0 0 0 0 0 0 0 0 0 0 0 0 0 0 0 0 0 0 0 0 0 0 0 0 0 0 0 0 0 0 0 0 0
0 0 0 0 0 0 0 0 0 0 0 0 0 0 0 0 0 0 0 0 0 0 0 0 0 0 0 0 0 0 0 0 0 0 0 0 0 0 0 0 0 0 0 0
0 0 0 0 0 0 0 0 0 0 0 0 0 0 0 0 0 0 0 0 0 0 0 0 0 0 0 0 0 0 0 0 0 0 0 0 0 0 0 0 0 0 0 0
0 0 0 0 0 0 0 0 0 0 0 0 0 0 0 0 0 0 0 0 0 0 0 0 0 0 0 0 0 0 0 0 0 0 0 0 0 0 0 0 0 0 0 0
0 0 0 0 0 0 0 0 0 0 0 0 0 0 0 0 0 0 0 0 0 0 0 0 0 0 0 0 0 0 0 0 0 0 0 0 0 0 0 0 0 0 0 0
0 0 0 0 0 0 0 0 0 0 0 0 0 0 0 0 0 0 0 0 0 0 0 0 0 0 0 0 0 0 0 0 0 0 0 0 0 0 0 0 0 0 0 0
0 0 0 0 0 0 0 0 0 0 0 0 0 0 0 0 0 0 0 0 0 0 0 0 0 0 0 0 0 0 0 0 0 0 0 0 0 0 0 0 0 0 0 0
0 0 0 0 0 0 0 0 0 0 0 0 0 0 0 0 0 0 0 0 0 0 0 0 0 0 0 0 0 0 0 0 0 0 0 0 0 0 0 0 0 0 0 0
0 0 0 0 0 0 0 0 0 0 0 0 0 0 0 0 0 0 0 0 0 0 0 0 0 0 0 0 0 0 0 0 0 0 0 0 0 0 0 0 0 0 0 0
0 0 0 0 0 0 0 0 0 0 0 0 0 0 0 0 0 0 0 0 0 0 0 0 0 0 0 0 0 0 0 0 0 0 0 0 0 0 0 0 0 0 0 0
0 0 0 0 0 0 0 0 0 0 0 0 0 0 0 0 0 0 0 0 0 0 0 0 0 0 0 0 0 0 0 0 0 0 0 0 0 0 0 0 0 0 0 0
0 0 0 0 0 0 0 0 0 0 0 0 0 0 0 0 0 0 0 0 0 0 0 0 0 0 0 0 0 0 0 0 0 0 0 0 0 0 0 0 0 0 0 0
0 0 0 0 0 0 0 0 0 0 0 0 0 0 0 0 0 0 0 0 0 0 0 0 0 0 0 0 0 0 0 0 0 0 0 0 0 0 0 0 0 0 0 0
0 0 0 0 0 0 0 0 0 0 0 0 0 0 0 0 0 0 0 0 0 0 0 0 0 0 0 0 0 0 0 0 0 0 0 0 0 0 0 0 0 0 0 0
0 0 0 0 0 0 0 0 0 0 0 0 0 0 0 0 0 0 0 0 0 0 0 0 0 0 0 0 0 0 0 0 0 0 0 0 0 0 0 0 0 0 0 0
0 0 0 0 0 0 0 0 0 0 0 0 0 0 0 0 0 0 0 0 0 0 0 0 0 0 0 0 0 0 0 0 0 0 0 0 0 0 0 0 0 0 0 0
Wind_Speed
6 5 4 4 5 4 3 3 3 4 5 6 6 6 7 8 8 8 8 8 9 9 9 7 6 6 6 6 7 7 6 5 4 2 2 2 2 2 2 2 4 3 4 4
4 4 4 3 4 4 4 3 3 4 6 5 5 6 6 8 8 7 9 9 8 9 9 8 7 6 6 6 6 6 6 5 5 3 2 2 2 2 2 2 3 2 3 3
5 3 4 4 4 5 5 4 4 5 5 5 5 6 8 9 8 8 7 8 9 9 11 10 9 7 6 6 6 6 6 6 6 5 2 2 2 2 2 2 2 3 3 4
4 3 3 4 4 4 4 5 6 6 5 5 7 4 8 11 10 9 8 7 8 8 9 9 9 9 7 6 5 6 6 6 5 5 3 3 3 2 2 2 2 2 3 4
3 4 4 4 3 3 2 3 5 6 6 5 8 6 5 10 11 11 10 9 8 8 9 9 9 9 8 7 5 5 5 5 5 5 4 3 3 2 2 2 3 3 3 3
4 4 3 3 4 3 3 4 6 6 5 6 9 7 3 6 11 12 11 10 9 9 8 8 8 8 8 6 5 5 5 4 4 5 4 4 4 4 4 3 2 2 2 2
7 6 5 4 4 5 4 2 2 4 5 5 6 5 3 5 8 10 10 10 9 9 9 9 9 9 8 8 6 6 6 5 4 5 5 5 4 4 4 3 2 2 2 1
5 6 6 5 5 4 6 7 4 3 2 2 3 3 3 6 7 8 9 8 8 8 8 8 8 8 8 8 7 7 6 6 5 5 4 5 5 2 2 3 3 2 2 2
3 3 6 5 5 5 5 6 6 5 4 2 2 4 6 6 7 7 8 8 7 7 7 8 9 8 9 9 8 7 7 6 6 5 4 4 4 3 3 3 3 2 2 2
3 3 5 5 6 8 6 5 3 2 2 2 2 3 4 8 7 7 7 8 7 6 7 8 8 9 9 8 7 7 7 7 6 5 4 4 4 4 3 2 3 3 3 3
4 3 4 6 6 6 6 5 3 3 3 2 1 1 2 8 8 7 7 7 7 7 7 8 7 7 8 8 7 7 6 6 6 6 5 5 4 4 4 3 3 3 3 3
4 3 4 6 6 5 6 5 4 3 3 2 0 1 2 7 7 7 7 6 5 6 7 7 7 7 7 8 8 8 7 6 6 5 5 5 4 4 4 3 4 3 3 2
2 4 3 3 5 6 6 6 5 4 3 2 1 1 0 4 6 6 6 6 5 6 7 7 7 7 7 7 7 7 7 7 6 5 6 5 5 5 4 4 3 3 3 3
3 6 5 4 3 5 6 6 6 5 3 3 2 4 2 2 4 6 6 5 5 6 6 7 7 6 6 7 6 7 7 7 7 6 5 5 5 5 4 4 3 3 3 3
5 7 5 5 6 5 5 6 7 6 5 4 2 2 3 4 5 6 5 5 6 6 5 7 7 6 6 6 6 6 7 7 7 7 5 5 5 5 5 4 3 3 2 3
6 7 6 7 7 6 6 7 7 8 6 6 3 2 1 3 4 5 5 5 6 6 5 6 6 7 7 8 7 7 7 7 7 7 6 5 5 5 5 4 4 3 3 3
6 6 5 5 6 6 7 6 7 7 6 6 4 3 3 3 3 4 4 5 5 6 5 6 6 6 6 7 8 8 8 7 7 7 7 6 6 6 5 5 4 4 3 3
7 6 4 4 5 7 3 1 3 4 4 3 3 2 3 4 3 3 3 4 4 5 5 5 5 5 5 5 6 7 7 7 7 7 7 7 6 6 5 5 5 4 4 3
7 5 4 4 5 4 4 3 3 3 4 3 3 3 4 4 4 3 4 3 3 4 4 5 4 5 5 5 6 7 7 7 6 6 7 7 7 6 6 6 5 4 4 3
8 6 5 5 5 5 1 3 1 2 3 2 3 3 3 4 2 3 4 3 3 4 4 4 4 5 5 5 6 7 6 6 6 6 6 7 7 7 6 6 5 4 4 3
9 8 8 7 6 3 1 1 1 3 1 1 2 2 2 2 3 4 5 4 4 4 4 4 4 4 4 5 6 6 6 6 6 5 5 6 6 6 6 5 5 5 4 4
6 5 6 6 6 3 2 2 1 2 3 2 3 4 4 5 5 6 6 5 4 4 4 4 4 3 3 4 6 5 5 6 6 6 5 5 5 5 5 6 5 4 4 4
5 2 1 1 1 1 1 1 2 2 3 4 5 5 5 5 5 5 6 5 4 3 4 4 5 4 3 3 5 6 5 6 7 7 6 5 6 5 5 5 5 4 3 3
3 3 3 2 3 3 1 1 2 2 3 4 4 4 4 5 5 5 5 5 4 3 4 4 4 4 3 3 3 4 6 7 7 7 6 5 5 5 5 4 4 4 3 3
2 2 3 3 3 3 3 2 2 2 3 4 3 3 3 5 5 5 4 5 4 3 3 3 4 4 4 3 3 4 5 6 7 6 6 5 5 5 5 4 3 4 3 4
5 4 4 4 3 3 3 3 3 2 3 4 3 4 4 4 4 4 4 4 4 4 4 4 4 4 4 4 3 4 5 6 6 6 5 4 4 4 5 5 4 5 4 6
Wind_Direction
199 218 222 206 216 233 237 210 192 171 171 182 182 182 175 176 177 177 175 179 174 170 167 160 160 152 153 152 143 138 139 133 124 110 100 93 81 71 59 60 56 39 39 39
194 221 233 240 215 231 243 219 201 175 180 188 183 198 194 188 187 183 180 177 171 167 163 161 160 157 158 152 144 145 144 142 132 127 129 127 118 101 87 59 52 37 47 47
211 188 209 235 227 220 221 224 209 190 188 205 201 213 209 193 187 189 182 176 176 174 166 163 167 161 158 157 159 155 155 146 140 141 122 108 84 77 89 82 53 29 45 44
225 229 223 218 226 234 225 217 215 205 204 208 209 222 210 194 185 186 182 178 175 169 164 164 167 162 166 161 156 155 157 147 141 137 132 138 131 124 116 114 109 75 57 52
209 205 227 225 229 240 251 243 237 228 231 240 221 230 205 183 183 187 185 179 175 165 162 165 165 161 162 158 155 152 150 146 143 139 138 139 119 120 111 108 103 96 77 65
219 210 218 231 234 240 252 248 245 236 238 244 228 216 196 188 183 182 180 176 174 170 165 166 161 154 152 148 149 142 138 137 136 140 149 144 133 125 114 103 101 99 89 65
212 204 192 216 223 203 220 228 239 219 214 231 216 198 169 153 164 167 168 172 172 171 170 167 158 155 150 149 151 146 144 144 146 156 160 148 142 140 133 129 117 106 100 77
214 203 191 201 227 218 218 215 234 250 231 225 199 165 127 129 137 149 153 157 160 169 171 164 156 154 152 154 157 153 153 155 162 170 165 151 141 136 136 135 126 117 116 121
224 203 172 195 225 237 227 235 259 289 292 254 175 120 122 122 132 148 149 150 161 168 162 157 156 158 156 157 159 162 159 159 164 170 164 152 146 141 138 134 126 122 116 115
244 218 188 187 218 225 246 252 257 259 276 244 166 171 171 155 154 155 152 157 165 164 160 159 160 158 158 158 162 161 160 162 160 162 163 150 143 139 129 130 133 122 115 101
259 231 203 194 213 218 221 230 244 258 263 280 182 91 150 151 150 158 157 154 162 163 161 156 152 153 152 154 158 157 162 159 160 162 155 148 147 140 131 128 126 122 116 120
239 246 222 216 210 229 240 237 230 247 265 261 324 45 135 135 142 148 150 152 156 151 149 145 147 149 152 159 164 165 165 160 158 155 146 149 153 145 141 143 137 134 130 125
262 255 235 211 201 212 233 234 242 254 262 260 194 152 127 128 133 134 137 143 149 147 148 144 147 152 157 163 166 165 162 157 155 149 149 157 157 153 151 141 134 138 134 132
262 257 242 226 238 227 225 227 232 244 254 260 203 150 185 143 123 125 130 139 144 151 152 147 148 155 158 162 164 162 159 155 155 154 158 162 158 153 146 135 129 136 131 133
243 261 258 251 254 250 233 234 228 233 244 245 227 183 181 153 137 132 140 146 141 145 148 147 155 157 157 160 165 164 159 158 159 160 164 163 151 143 137 133 135 131 132 135
228 259 263 250 247 253 246 241 233 229 233 240 225 226 196 135 133 136 140 142 146 151 157 156 161 161 167 167 167 160 156 161 160 162 163 154 144 138 141 145 140 127 121 113
222 241 258 252 245 247 248 235 229 225 223 233 238 215 144 135 128 121 133 147 154 156 159 161 167 167 171 172 169 163 161 156 160 159 156 151 145 146 153 150 137 135 129 116
241 248 260 260 254 246 228 212 219 224 231 227 217 170 122 123 106 97 108 131 144 154 160 162 166 162 167 165 159 154 153 156 161 158 156 153 151 153 156 148 151 155 143 138
226 232 253 259 252 258 224 184 186 209 229 211 191 150 128 125 121 113 100 104 127 142 154 157 161 157 167 165 159 152 154 156 156 157 159 157 155 153 154 155 158 152 142 139
219 223 235 248 253 249 228 109 99 232 227 160 155 149 151 173 164 133 117 106 114 131 139 142 147 153 161 160 154 150 154 154 159 160 160 157 151 150 156 163 158 144 137 138
206 215 227 240 246 242 100 110 230 230 146 89 115 129 142 132 108 111 115 109 107 111 120 127 133 142 151 152 147 151 156 160 157 151 152 150 147 150 155 155 147 141 142 145
218 219 221 229 234 215 121 178 202 73 80 83 79 84 91 88 95 103 105 106 105 107 114 124 122 118 131 145 148 155 156 152 142 141 143 142 141 147 147 142 141 145 149 154
218 221 248 240 178 96 62 75 43 39 76 72 75 83 96 102 103 105 106 106 108 111 115 121 123 121 124 141 151 155 149 139 137 139 142 145 143 138 137 141 145 148 149 154
213 195 218 229 184 171 188 125 99 61 70 73 78 88 99 112 114 112 114 114 112 110 108 113 117 123 129 133 126 139 142 142 139 140 142 141 140 136 136 135 139 145 150 154
254 221 225 237 211 168 182 149 119 98 98 96 89 90 99 113 114 115 120 117 114 106 106 113 123 126 127 121 123 125 132 141 142 143 142 140 139 141 135 131 131 146 149 157
248 241 227 229 222 203 177 168 147 129 119 118 110 101 98 107 112 114 114 111 113 118 119 117 112 117 127 125 117 118 130 136 139 142 141 137 136 140 140 134 112 75 107 123